Regional Weather Roundup
Issued by NWS Bismarck, ND

Home | Current Version | Previous Version | Text Only | Print | Product List | Glossary On
Versions: 1 2 3 4 5 6 7 8 9 10 11 12 13 14 15 16 17 18 19 20 21 22 23 24 25 26 27 28 29 30 31 32 33 34 35 36 37 38 39 40 41 42 43 44 45 46 47 48 49 50
000
ASUS43 KBIS 222302
RWRBIS

NWR BROADCAST TEXT
NATIONAL WEATHER SERVICE BISMARCK ND
600 PM CDT SUN OCT 22 2017

NOTE: "FAIR" INDICATES FEW OR NO CLOUDS BELOW 12,000 FEET WITH NO
SIGNIFICANT WEATHER AND/OR OBSTRUCTIONS TO VISIBILITY.


CITY           SKY/WX    TMP DP  RH WIND       PRES   REMARKS
WILLISTON      MOCLDY    66  39  37 W20       29.55R
MINOT          PTCLDY    57  41  55 S8        29.57F
MINOT AFB      PTCLDY    56  42  58 SW13      29.55
BISMARCK       CLOUDY    63  33  32 W9        29.68S
DICKINSON      MOCLDY    63  35  35 W13       29.64S
GARRISON         N/A     56  42  59 S7        29.60F
HETTINGER ARPT MOCLDY    63  34  33 W14       29.72S
JAMESTOWN      CLOUDY    62  26  25 SW15G24   29.69S
CARRINGTON     CLOUDY    59  36  41 SW13G20   29.68S
LINTON         MOCLDY    64  32  29 SW15G22   29.71S
TIOGA          MOCLDY    59  39  47 W20G28    29.55S
$$

CITY           SKY/WX    TMP DP  RH WIND       PRES   REMARKS
GRAND FORKS    CLOUDY    63  30  28 SW16G23   29.66F
GRAND FORKS AF NOT AVBL
DEVILS LAKE    LGT RAIN  56  39  53 SW17      29.63S
FARGO          CLOUDY    61  31  32 S12G33    29.73F
CANDO          CLOUDY    52  39  62 SW15      29.62S
CAVALIER       MOCLDY    59  34  38 SW10      29.61F
GWINNER        CLEAR     63  25  23 SW12G21   29.74S
ROLLA          CLOUDY    46  39  76 SW16      29.57F
WALHALLA       FAIR     N/A N/A N/A SW15G25   29.59F
$$

CITY           SKY/WX    TMP DP  RH WIND       PRES   REMARKS
ABERDEEN       PTCLDY    64  28  25 S14       29.77F
MOBRIDGE       PTCLDY    66  33  29 S12       29.71F
BUFFALO          N/A     68  30  24 W24       29.67F
RAPID CITY     CLEAR     68  29  23 W15       29.84S
GLASGOW        PTCLDY    56  38  50 NW15G28   29.64R
SIDNEY         CLEAR     66  36  32 W24G32    29.59
WOLF POINT     CLOUDY    57  42  57 W21G33    29.63R
GLENDIVE       PTCLDY    57  44  62 W15       29.66F
MILES CITY     MOCLDY    63  37  38 NW22      29.70F
BAKER          LGT RAIN  53  45  74 NW18G28   29.75R
$$

CITY           SKY/WX    TMP DP  RH WIND       PRES   REMARKS
BILLINGS       PTSUNNY   59  39  47 W25G36    29.88R
GREAT FALLS    SUNNY     53  26  35 W36G48    29.89R
$$





USA.gov is the U.S. government's official web portal to all federal, state and local government web resources and services.